TimePST,TemperatureF,Dew PointF,Humidity,Sea Level PressureIn,VisibilityMPH,Wind Direction,Wind SpeedMPH,Gust SpeedMPH,PrecipitationIn,Events,Conditions,WindDirDegrees,DateUTC
12:53 AM,35.1,18.0,50,30.02,10.0,SSE,21.9,34.5,N/A,,Overcast,150,2012-12-20 08:53:00
1:53 AM,34.0,18.0,52,30.00,10.0,South,20.7,35.7,N/A,,Clear,170,2012-12-20 09:53:00
2:53 AM,34.0,18.0,52,29.99,10.0,South,31.1,40.3,N/A,,Clear,170,2012-12-20 10:53:00
3:53 AM,34.0,19.9,56,29.96,10.0,South,27.6,40.3,N/A,,Scattered Clouds,170,2012-12-20 11:53:00
4:53 AM,34.0,21.0,59,29.92,10.0,South,38.0,46.0,N/A,,Partly Cloudy,180,2012-12-20 12:53:00
5:53 AM,34.0,21.0,59,29.89,10.0,South,42.6,56.4,N/A,,Partly Cloudy,170,2012-12-20 13:53:00
6:53 AM,34.0,19.9,56,29.87,10.0,South,42.6,59.8,N/A,,Clear,170,2012-12-20 14:53:00
7:53 AM,35.1,21.0,57,29.85,10.0,South,41.4,54.1,N/A,,Mostly Cloudy,180,2012-12-20 15:53:00
8:53 AM,36.0,21.9,57,29.85,10.0,South,46.0,58.7,N/A,,Overcast,170,2012-12-20 16:53:00
9:53 AM,35.1,21.9,59,29.89,10.0,South,33.4,50.6,N/A,,Overcast,170,2012-12-20 17:53:00
10:53 AM,34.0,24.1,67,29.94,10.0,South,24.2,43.7,N/A,,Overcast,180,2012-12-20 18:53:00
11:53 AM,34.0,25.0,70,29.95,9.0,South,27.6,36.8,N/A,,Overcast,170,2012-12-20 19:53:00
12:02 PM,33.8,26.6,75,29.87,1.8,South,27.6,35.7,0.00,Snow,Light Snow,170,2012-12-20 20:02:00
12:15 PM,33.8,26.6,75,29.88,0.8,South,23.0,32.2,0.00,Snow,Light Snow,170,2012-12-20 20:15:00
12:22 PM,33.8,26.6,75,29.88,1.5,South,20.7,-,0.00,Snow,Light Snow,180,2012-12-20 20:22:00
12:27 PM,33.8,26.6,75,29.88,3.0,South,19.6,27.6,0.00,Snow,Light Snow,180,2012-12-20 20:27:00
12:53 PM,33.1,27.0,78,29.95,4.0,South,16.1,-,0.00,Snow,Light Snow,170,2012-12-20 20:53:00
1:44 PM,33.8,28.4,81,29.86,7.0,South,20.7,29.9,0.00,Snow,Light Snow,170,2012-12-20 21:44:00
1:53 PM,33.1,28.0,82,29.94,9.0,South,19.6,27.6,0.00,,Overcast,170,2012-12-20 21:53:00
2:53 PM,34.0,26.1,73,29.93,10.0,South,20.7,26.5,0.00,,Overcast,170,2012-12-20 22:53:00
3:53 PM,35.1,25.0,67,29.93,10.0,South,17.3,-,N/A,,Overcast,170,2012-12-20 23:53:00
4:53 PM,35.1,25.0,67,29.91,10.0,South,17.3,28.8,N/A,,Overcast,170,2012-12-21 00:53:00
5:53 PM,34.0,26.1,73,29.92,9.0,South,18.4,25.3,0.00,,Overcast,170,2012-12-21 01:53:00
6:53 PM,35.1,26.1,70,29.93,10.0,South,18.4,-,0.00,,Overcast,170,2012-12-21 02:53:00
7:01 PM,35.6,26.6,70,29.85,8.0,South,17.3,-,0.00,Snow,Light Snow,170,2012-12-21 03:01:00
7:18 PM,35.6,26.6,70,29.86,10.0,South,20.7,27.6,0.00,,Overcast,170,2012-12-21 03:18:00
7:53 PM,35.1,26.1,70,29.92,10.0,South,11.5,-,0.00,,Overcast,170,2012-12-21 03:53:00
8:23 PM,35.6,26.6,70,29.85,4.0,SSE,19.6,25.3,0.00,Snow,Light Snow,160,2012-12-21 04:23:00
8:28 PM,35.6,26.6,70,29.85,1.8,South,21.9,26.5,0.00,Snow,Light Snow,170,2012-12-21 04:28:00
8:42 PM,35.6,28.4,75,29.85,3.0,South,20.7,-,0.00,Snow,Light Snow,170,2012-12-21 04:42:00
8:53 PM,34.0,28.0,79,29.92,9.0,South,16.1,25.3,0.00,,Overcast,170,2012-12-21 04:53:00
9:10 PM,33.8,28.4,81,29.84,1.8,South,12.7,-,0.00,Snow,Light Snow,170,2012-12-21 05:10:00
9:23 PM,33.8,28.4,81,29.85,3.0,South,10.4,-,0.00,Snow,Light Snow,170,2012-12-21 05:23:00
9:35 PM,35.6,28.4,75,29.84,9.0,SSE,11.5,-,0.00,,Overcast,160,2012-12-21 05:35:00
9:53 PM,35.1,27.0,72,29.91,10.0,South,11.5,-,0.00,,Overcast,170,2012-12-21 05:53:00
10:53 PM,36.0,27.0,70,29.91,9.0,South,13.8,-,0.00,Snow,Light Snow,170,2012-12-21 06:53:00
11:08 PM,35.6,26.6,70,29.83,9.0,South,12.7,-,0.00,,Overcast,180,2012-12-21 07:08:00
11:22 PM,35.6,26.6,70,29.84,10.0,South,10.4,-,0.00,,Overcast,180,2012-12-21 07:22:00
11:53 PM,34.0,28.0,79,29.90,10.0,West,3.5,-,0.00,,Overcast,260,2012-12-21 07:53:00